Simultaneous Nadir Overpasses (SNOs) Predictions

Prediction of SNOs between GOES-16 and AQUA Satellite Orbit:

Table of predicted SNOs for the next 14.0 days since TLE Epoch: 8/17/2024
Index Date Time (GOES-16) GOES-16 Lat,Lon AQUA Lat,Lon Distance(km) Time Diff (sec)
1 08/18/2024 07:17:55 0.05, -75.21 0.05, -75.36 17.10 80
2 08/20/2024 06:58:06 0.04, -75.22 -0.83, -71.17 461.16 80
3 08/20/2024 19:18:13 -0.04, -75.22 -0.19, -76.04 92.65 80
4 08/22/2024 19:03:42 -0.04, -75.24 0.70, -71.84 387.41 80
5 08/23/2024 07:21:00 0.03, -75.25 0.33, -76.67 160.64 80
6 08/25/2024 07:03:47 0.03, -75.28 -0.57, -72.46 320.78 80
7 08/25/2024 19:23:53 -0.03, -75.28 -0.45, -77.32 232.33 80
8 08/27/2024 19:09:18 -0.02, -75.30 0.45, -73.10 250.23 80
9 08/28/2024 07:29:15 0.02, -75.32 0.58, -77.93 297.15 80
10 08/30/2024 07:09:18 0.00, -75.35 -0.33, -73.71 186.83 80
11 08/30/2024 19:29:22 0.00, -75.35 -0.68, -78.57 365.51 80
